SAS1220 EKBI-EKCH

Flight info

Callsign SAS1220
Flight time N/A
Altitude 19000
Route ABINO T56 TESPI
Aircraft A320/M-SDE3FGHIRWY/LB1

Departure

Time 2026-04-29 17:13
Airport Billund Airport (EKBI)

Arrival

Time N/A
Airport Copenhagen Kastrup Airport (EKCH)
Time Latitude Longitude Altitude Speed Heading
2026-04-29 16:49 55.74526 9.14553 218 ft 0 kts 357°
2026-04-29 17:03 55.74504 9.14554 220 ft 4 kts 359°
2026-04-29 17:04 55.74485 9.14554 216 ft 4 kts
2026-04-29 17:04 55.74458 9.14548 216 ft 4 kts 22°
2026-04-29 17:04 55.74443 9.14532 227 ft 4 kts 69°
2026-04-29 17:04 55.74441 9.14522 225 ft 0 kts 87°
2026-04-29 17:06 55.74442 9.14555 217 ft 5 kts 88°
2026-04-29 17:07 55.74443 9.14632 216 ft 7 kts 88°
2026-04-29 17:07 55.74444 9.14699 216 ft 9 kts 88°
2026-04-29 17:07 55.74448 9.14845 219 ft 12 kts 87°
2026-04-29 17:07 55.74419 9.14967 216 ft 12 kts 158°
2026-04-29 17:08 55.74326 9.14987 216 ft 15 kts 174°
2026-04-29 17:08 55.74231 9.15002 219 ft 13 kts 168°
2026-04-29 17:08 55.74202 9.15153 216 ft 15 kts 87°
2026-04-29 17:08 55.74206 9.15348 216 ft 17 kts 88°
2026-04-29 17:09 55.74214 9.15579 216 ft 20 kts 87°
2026-04-29 17:09 55.74221 9.15840 216 ft 22 kts 86°
2026-04-29 17:09 55.74230 9.16118 216 ft 23 kts 87°
2026-04-29 17:09 55.74238 9.16418 216 ft 26 kts 87°
2026-04-29 17:10 55.74249 9.16748 216 ft 26 kts 86°
2026-04-29 17:10 55.74261 9.17064 216 ft 24 kts 86°
2026-04-29 17:10 55.74268 9.17278 216 ft 17 kts 86°
2026-04-29 17:10 55.74276 9.17499 216 ft 19 kts 88°
2026-04-29 17:11 55.74280 9.17754 225 ft 22 kts 88°
2026-04-29 17:11 55.74286 9.18004 216 ft 19 kts 93°
2026-04-29 17:11 55.74200 9.18142 220 ft 18 kts 171°
2026-04-29 17:11 55.74139 9.18138 216 ft 0 kts 200°
2026-04-29 17:12 55.74126 9.18116 218 ft 8 kts 235°
2026-04-29 17:12 55.74121 9.18006 226 ft 1 kts 266°
2026-04-29 17:12 55.74120 9.17998 225 ft 9 kts 266°
2026-04-29 17:13 55.74078 9.16613 223 ft 117 kts 267°
2026-04-29 17:13 55.74017 9.14899 300 ft 152 kts 269°
2026-04-29 17:13 55.73957 9.13047 926 ft 150 kts 274°
2026-04-29 17:13 55.74349 9.11393 1479 ft 149 kts 316°
2026-04-29 17:14 55.75297 9.10488 1803 ft 169 kts 351°
2026-04-29 17:14 55.76503 9.10923 2075 ft 193 kts 33°
2026-04-29 17:14 55.77586 9.12580 2378 ft 218 kts 41°
2026-04-29 17:14 55.78762 9.14512 2804 ft 242 kts 42°
2026-04-29 17:15 55.80033 9.16609 3509 ft 253 kts 43°
2026-04-29 17:15 55.81339 9.18760 4423 ft 257 kts 43°
2026-04-29 17:15 55.82654 9.20924 5400 ft 258 kts 43°
2026-04-29 17:15 55.83979 9.23097 6351 ft 260 kts 43°
2026-04-29 17:16 55.85315 9.25279 7269 ft 261 kts 43°
2026-04-29 17:16 55.86635 9.27510 8157 ft 263 kts 48°
2026-04-29 17:16 55.87666 9.30209 9009 ft 266 kts 63°
2026-04-29 17:16 55.88109 9.32254 9595 ft 269 kts 72°
2026-04-29 17:17 55.88549 9.35551 10448 ft 271 kts 74°
2026-04-29 17:17 55.88983 9.38837 10910 ft 286 kts 74°
2026-04-29 17:17 55.89462 9.42422 11106 ft 309 kts 74°
2026-04-29 17:17 55.89973 9.46265 11404 ft 325 kts 74°
2026-04-29 17:18 55.90493 9.50220 12057 ft 330 kts 74°
2026-04-29 17:18 55.91012 9.54212 12776 ft 332 kts 74°
2026-04-29 17:18 55.91534 9.58229 13521 ft 333 kts 74°
2026-04-29 17:18 55.92058 9.62262 14263 ft 335 kts 73°
2026-04-29 17:19 55.92584 9.66318 14922 ft 337 kts 73°
2026-04-29 17:19 55.93117 9.70421 15503 ft 340 kts 73°
2026-04-29 17:19 55.93650 9.74547 16086 ft 344 kts 73°
2026-04-29 17:19 55.94225 9.79005 16687 ft 347 kts 73°
2026-04-29 17:20 55.94733 9.82942 17218 ft 351 kts 73°
2026-04-29 17:20 55.95279 9.87209 17809 ft 354 kts 73°
2026-04-29 17:20 55.95827 9.91517 18389 ft 358 kts 72°
2026-04-29 17:20 55.96339 9.95872 18939 ft 364 kts 77°
2026-04-29 17:21 55.96486 10.00461 19340 ft 373 kts 87°
2026-04-29 17:21 55.96141 10.05092 19441 ft 385 kts 97°
2026-04-29 17:21 55.95518 10.09859 19464 ft 403 kts 97°
2026-04-29 17:21 55.94876 10.14787 19461 ft 411 kts 98°
2026-04-29 17:22 55.94233 10.19701 19461 ft 413 kts 98°
2026-04-29 17:22 55.93578 10.24697 19481 ft 413 kts 97°
2026-04-29 17:22 55.92920 10.29677 19462 ft 412 kts 97°
2026-04-29 17:22 55.92264 10.34648 19463 ft 412 kts 97°
2026-04-29 17:23 55.91608 10.39628 19462 ft 412 kts 97°
2026-04-29 17:23 55.90952 10.44595 19464 ft 412 kts 97°
2026-04-29 17:23 55.90294 10.49567 19464 ft 412 kts 97°
2026-04-29 17:23 55.89638 10.54537 19463 ft 412 kts 97°
2026-04-29 17:24 55.89010 10.59508 19461 ft 411 kts 97°
2026-04-29 17:24 55.88417 10.64419 19460 ft 411 kts 96°
2026-04-29 17:24 55.87829 10.69400 19459 ft 411 kts 96°
2026-04-29 17:24 55.87244 10.74368 19459 ft 411 kts 96°
2026-04-29 17:25 55.86648 10.79356 19458 ft 411 kts 96°
2026-04-29 17:25 55.86044 10.84333 19458 ft 411 kts 97°
2026-04-29 17:25 55.85434 10.89302 19461 ft 411 kts 97°